Time,TemperatureF,DewpointF,PressureIn,WindDirection,WindDirectionDegrees,WindSpeedMPH,WindSpeedGustMPH,Humidity,HourlyPrecipIn,Conditions,Clouds,dailyrainin,SoftwareType,DateUTC
2013-05-04 00:00:00,61.4,55.9,29.92,NE,46,0.0,0.0,82,0.00,,---,0.00,VWS V14.01,2013-05-04 04:00:00,
2013-05-04 00:01:00,60.6,55.8,29.92,NNE,12,0.0,0.0,84,0.00,,---,0.00,VWS V14.01,2013-05-04 04:01:00,
2013-05-04 00:02:00,60.6,55.8,29.92,NNE,12,0.0,0.0,84,0.00,,---,0.00,VWS V14.01,2013-05-04 04:02:00,
2013-05-04 00:05:00,61.3,55.8,29.93,NNE,22,0.0,1.0,82,0.00,,---,0.00,VWS V14.01,2013-05-04 04:05:00,
2013-05-04 00:07:00,60.5,56.0,29.91,NNE,12,0.0,0.0,85,0.00,,---,0.00,VWS V14.01,2013-05-04 04:07:00,
2013-05-04 00:10:00,61.1,55.6,29.93,North,3,0.0,1.0,82,0.00,,---,0.00,VWS V14.01,2013-05-04 04:10:00,
2013-05-04 00:12:00,60.5,56.3,29.91,NNE,12,0.0,0.0,86,0.00,,---,0.00,VWS V14.01,2013-05-04 04:12:00,
2013-05-04 00:15:00,61.0,55.8,29.93,North,3,0.0,0.0,83,0.00,,---,0.00,VWS V14.01,2013-05-04 04:15:00,
2013-05-04 00:17:00,60.3,55.5,29.91,NNW,346,2.0,3.0,84,0.00,,---,0.00,VWS V14.01,2013-05-04 04:17:00,
2013-05-04 00:20:00,60.8,55.6,29.92,North,4,0.0,0.0,83,0.00,,---,0.00,VWS V14.01,2013-05-04 04:20:00,
2013-05-04 00:22:00,60.4,54.9,29.91,NNW,340,0.0,2.0,82,0.00,,---,0.00,VWS V14.01,2013-05-04 04:22:00,
2013-05-04 00:25:00,60.8,55.9,29.92,North,4,0.0,0.0,84,0.00,,---,0.00,VWS V14.01,2013-05-04 04:25:00,
2013-05-04 00:27:00,60.9,54.7,29.91,East,89,1.0,5.0,80,0.00,,---,0.00,VWS V14.01,2013-05-04 04:27:00,
2013-05-04 00:30:00,60.6,55.8,29.92,North,8,1.0,1.0,84,0.00,,---,0.00,VWS V14.01,2013-05-04 04:30:00,
2013-05-04 00:32:00,61.3,54.7,29.91,NNE,26,1.0,4.0,79,0.00,,---,0.00,VWS V14.01,2013-05-04 04:32:00,
2013-05-04 00:35:00,60.6,55.8,29.92,North,11,0.0,1.0,84,0.00,,---,0.00,VWS V14.01,2013-05-04 04:35:00,
2013-05-04 00:37:00,61.5,54.6,29.90,WNW,287,2.0,2.0,78,0.00,,---,0.00,VWS V14.01,2013-05-04 04:37:00,
2013-05-04 00:40:00,60.7,55.8,29.92,NNE,12,0.0,0.0,84,0.00,,---,0.00,VWS V14.01,2013-05-04 04:40:00,
2013-05-04 00:42:00,61.5,53.9,29.90,NNW,338,0.0,7.0,76,0.00,,---,0.00,VWS V14.01,2013-05-04 04:42:00,
2013-05-04 00:45:00,60.6,56.1,29.92,North,11,0.0,0.0,85,0.00,,---,0.00,VWS V14.01,2013-05-04 04:45:00,
2013-05-04 00:47:00,61.6,54.0,29.90,NNW,342,0.0,3.0,76,0.00,,---,0.00,VWS V14.01,2013-05-04 04:47:00,
2013-05-04 00:50:00,60.4,55.9,29.92,North,10,0.0,0.0,85,0.00,,---,0.00,VWS V14.01,2013-05-04 04:50:00,
2013-05-04 00:52:00,61.7,53.7,29.90,ENE,68,1.0,2.0,75,0.00,,---,0.00,VWS V14.01,2013-05-04 04:52:00,
2013-05-04 00:55:00,60.4,55.5,29.92,NNE,12,0.0,1.0,84,0.00,,---,0.00,VWS V14.01,2013-05-04 04:55:00,
2013-05-04 00:57:00,61.9,53.9,29.90,North,352,1.0,6.0,75,0.00,,---,0.00,VWS V14.01,2013-05-04 04:57:00,
2013-05-04 01:00:00,60.6,55.8,29.92,NNE,12,0.0,1.0,84,0.00,,---,0.00,VWS V14.01,2013-05-04 05:00:00,
2013-05-04 01:02:00,61.9,53.5,29.90,NNW,343,0.0,3.0,74,0.00,,---,0.00,VWS V14.01,2013-05-04 05:02:00,
2013-05-04 01:05:00,60.6,55.8,29.92,NNE,12,0.0,0.0,84,0.00,,---,0.00,VWS V14.01,2013-05-04 05:05:00,
2013-05-04 01:07:00,62.0,53.6,29.90,WNW,302,0.0,4.0,74,0.00,,---,0.00,VWS V14.01,2013-05-04 05:07:00,
2013-05-04 01:10:00,60.5,56.0,29.91,NNE,12,0.0,0.0,85,0.00,,---,0.00,VWS V14.01,2013-05-04 05:10:00,
2013-05-04 01:12:00,62.0,53.6,29.90,North,4,0.0,2.0,74,0.00,,---,0.00,VWS V14.01,2013-05-04 05:12:00,
2013-05-04 01:15:00,60.4,56.2,29.91,NNE,12,0.0,0.0,86,0.00,,---,0.00,VWS V14.01,2013-05-04 05:15:00,
2013-05-04 01:17:00,62.2,53.5,29.89,NE,53,3.0,6.0,73,0.00,,---,0.00,VWS V14.01,2013-05-04 05:17:00,
2013-05-04 01:20:00,60.4,55.5,29.91,NNW,329,1.0,3.0,84,0.00,,---,0.00,VWS V14.01,2013-05-04 05:20:00,
2013-05-04 01:22:00,62.3,53.5,29.90,NW,325,1.0,2.0,73,0.00,,---,0.00,VWS V14.01,2013-05-04 05:22:00,
2013-05-04 01:25:00,60.7,54.8,29.91,NNE,25,1.0,5.0,81,0.00,,---,0.00,VWS V14.01,2013-05-04 05:25:00,
2013-05-04 01:27:00,62.2,53.5,29.89,West,276,0.0,7.0,73,0.00,,---,0.00,VWS V14.01,2013-05-04 05:27:00,
2013-05-04 01:30:00,61.2,54.6,29.91,NE,45,1.0,6.0,79,0.00,,---,0.00,VWS V14.01,2013-05-04 05:30:00,
2013-05-04 01:32:00,62.2,53.5,29.89,NE,56,5.0,8.0,73,0.00,,---,0.00,VWS V14.01,2013-05-04 05:32:00,
2013-05-04 01:35:00,61.4,54.5,29.91,NNW,330,0.0,5.0,78,0.00,,---,0.00,VWS V14.01,2013-05-04 05:35:00,
2013-05-04 01:37:00,62.2,53.5,29.89,NNW,332,2.0,2.0,73,0.00,,---,0.00,VWS V14.01,2013-05-04 05:37:00,
2013-05-04 01:40:00,61.4,54.1,29.90,North,354,3.0,7.0,77,0.00,,---,0.00,VWS V14.01,2013-05-04 05:40:00,
2013-05-04 01:42:00,62.0,53.3,29.89,North,11,1.0,5.0,73,0.00,,---,0.00,VWS V14.01,2013-05-04 05:42:00,
2013-05-04 01:45:00,61.7,54.1,29.90,NE,40,0.0,7.0,76,0.00,,---,0.00,VWS V14.01,2013-05-04 05:45:00,
2013-05-04 01:47:00,61.9,53.5,29.89,ENE,60,4.0,4.0,74,0.00,,---,0.00,VWS V14.01,2013-05-04 05:47:00,
2013-05-04 01:50:00,61.7,53.7,29.90,NNE,18,2.0,3.0,75,0.00,,---,0.00,VWS V14.01,2013-05-04 05:50:00,
2013-05-04 01:52:00,61.8,53.8,29.88,ENE,63,1.0,2.0,75,0.00,,---,0.00,VWS V14.01,2013-05-04 05:52:00,
2013-05-04 01:55:00,61.8,53.8,29.90,East,90,4.0,4.0,75,0.00,,---,0.00,VWS V14.01,2013-05-04 05:55:00,
2013-05-04 01:57:00,61.5,54.2,29.88,NE,43,1.0,2.0,77,0.00,,---,0.00,VWS V14.01,2013-05-04 05:57:00,
2013-05-04 02:00:00,61.9,53.5,29.90,North,8,1.0,6.0,74,0.00,,---,0.00,VWS V14.01,2013-05-04 06:00:00,
2013-05-04 02:02:00,60.9,54.7,29.88,ENE,75,1.0,2.0,80,0.00,,---,0.00,VWS V14.01,2013-05-04 06:02:00,
2013-05-04 02:05:00,61.9,53.5,29.90,WNW,289,4.0,7.0,74,0.00,,---,0.00,VWS V14.01,2013-05-04 06:05:00,
2013-05-04 02:07:00,60.1,54.3,29.88,East,79,2.0,2.0,81,0.00,,---,0.00,VWS V14.01,2013-05-04 06:07:00,
2013-05-04 02:10:00,62.1,53.7,29.90,North,349,1.0,4.0,74,0.00,,---,0.00,VWS V14.01,2013-05-04 06:10:00,
2013-05-04 02:12:00,59.5,54.3,29.88,East,83,0.0,1.0,83,0.00,,---,0.00,VWS V14.01,2013-05-04 06:12:00,
2013-05-04 02:15:00,62.2,53.5,29.90,WNW,282,3.0,5.0,73,0.00,,---,0.00,VWS V14.01,2013-05-04 06:15:00,
2013-05-04 02:17:00,59.1,54.6,29.88,ENE,68,0.0,1.0,85,0.00,,---,0.00,VWS V14.01,2013-05-04 06:17:00,
2013-05-04 02:20:00,62.3,53.5,29.90,NNE,22,1.0,7.0,73,0.00,,---,0.00,VWS V14.01,2013-05-04 06:20:00,
2013-05-04 02:22:00,58.8,55.0,29.88,ENE,68,0.0,0.0,87,0.00,,---,0.00,VWS V14.01,2013-05-04 06:22:00,
2013-05-04 02:25:00,62.2,53.5,29.90,East,95,3.0,5.0,73,0.00,,---,0.00,VWS V14.01,2013-05-04 06:25:00,
2013-05-04 02:27:00,58.5,55.3,29.88,ENE,68,0.0,0.0,89,0.00,,---,0.00,VWS V14.01,2013-05-04 06:27:00,
2013-05-04 02:30:00,62.2,53.5,29.89,NE,53,2.0,8.0,73,0.00,,---,0.00,VWS V14.01,2013-05-04 06:30:00,
2013-05-04 02:32:00,58.1,55.2,29.87,ENE,68,0.0,0.0,90,0.00,,---,0.00,VWS V14.01,2013-05-04 06:32:00,
2013-05-04 02:35:00,62.2,53.5,29.89,NE,56,1.0,8.0,73,0.00,,---,0.00,VWS V14.01,2013-05-04 06:35:00,
2013-05-04 02:37:00,57.7,55.1,29.87,ENE,68,0.0,0.0,91,0.00,,---,0.00,VWS V14.01,2013-05-04 06:37:00,
2013-05-04 02:40:00,62.1,53.3,29.89,ENE,66,4.0,4.0,73,0.00,,---,0.00,VWS V14.01,2013-05-04 06:40:00,
2013-05-04 02:42:00,57.4,55.1,29.87,ENE,68,0.0,1.0,92,0.00,,---,0.00,VWS V14.01,2013-05-04 06:42:00,
2013-05-04 02:45:00,62.0,53.6,29.89,ENE,60,3.0,5.0,74,0.00,,---,0.00,VWS V14.01,2013-05-04 06:45:00,
2013-05-04 02:47:00,57.2,55.2,29.87,ENE,68,1.0,1.0,93,0.00,,---,0.00,VWS V14.01,2013-05-04 06:47:00,
2013-05-04 02:50:00,61.9,53.9,29.88,ENE,72,1.0,4.0,75,0.00,,---,0.00,VWS V14.01,2013-05-04 06:50:00,
2013-05-04 02:52:00,56.9,55.2,29.87,ESE,122,1.0,3.0,94,0.00,,---,0.00,VWS V14.01,2013-05-04 06:52:00,
2013-05-04 02:55:00,61.6,54.0,29.88,NNW,344,0.0,3.0,76,0.00,,---,0.00,VWS V14.01,2013-05-04 06:55:00,
2013-05-04 02:57:00,56.8,55.1,29.86,ESE,120,1.0,1.0,94,0.00,,---,0.00,VWS V14.01,2013-05-04 06:57:00,
2013-05-04 03:00:00,61.1,54.5,29.88,East,99,0.0,2.0,79,0.00,,---,0.00,VWS V14.01,2013-05-04 07:00:00,
2013-05-04 03:02:00,56.7,55.3,29.86,ESE,120,0.0,2.0,95,0.00,,---,0.00,VWS V14.01,2013-05-04 07:02:00,
2013-05-04 03:05:00,60.4,54.2,29.88,ENE,75,1.0,3.0,80,0.00,,---,0.00,VWS V14.01,2013-05-04 07:05:00,
2013-05-04 03:07:00,56.5,55.1,29.86,ESE,122,2.0,2.0,95,0.00,,---,0.00,VWS V14.01,2013-05-04 07:07:00,
2013-05-04 03:10:00,59.7,54.2,29.88,East,83,1.0,3.0,82,0.00,,---,0.00,VWS V14.01,2013-05-04 07:10:00,
2013-05-04 03:12:00,56.5,55.1,29.86,SE,141,0.0,1.0,95,0.00,,---,0.00,VWS V14.01,2013-05-04 07:12:00,
2013-05-04 03:15:00,59.3,54.5,29.88,ENE,70,0.0,1.0,84,0.00,,---,0.00,VWS V14.01,2013-05-04 07:15:00,
2013-05-04 03:17:00,56.5,55.4,29.85,SE,141,0.0,0.0,96,0.00,,---,0.00,VWS V14.01,2013-05-04 07:17:00,
2013-05-04 03:20:00,58.9,54.7,29.88,ENE,68,0.0,1.0,86,0.00,,---,0.00,VWS V14.01,2013-05-04 07:20:00,
2013-05-04 03:22:00,56.4,55.3,29.85,SE,141,0.0,0.0,96,0.00,,---,0.00,VWS V14.01,2013-05-04 07:22:00,
2013-05-04 03:25:00,58.7,55.2,29.88,ENE,68,0.0,0.0,88,0.00,,---,0.00,VWS V14.01,2013-05-04 07:25:00,
2013-05-04 03:27:00,56.4,55.3,29.84,SE,141,0.0,0.0,96,0.00,,---,0.00,VWS V14.01,2013-05-04 07:27:00,
2013-05-04 03:30:00,58.3,55.1,29.88,ENE,68,0.0,1.0,89,0.00,,---,0.00,VWS V14.01,2013-05-04 07:30:00,
2013-05-04 03:32:00,56.2,55.1,29.85,SE,141,0.0,0.0,96,0.00,,---,0.00,VWS V14.01,2013-05-04 07:32:00,
2013-05-04 03:35:00,57.8,55.2,29.87,ENE,68,0.0,0.0,91,0.00,,---,0.00,VWS V14.01,2013-05-04 07:35:00,
2013-05-04 03:37:00,56.1,55.0,29.84,SE,141,0.0,0.0,96,0.00,,---,0.00,VWS V14.01,2013-05-04 07:37:00,
2013-05-04 03:40:00,57.5,55.2,29.87,ENE,68,1.0,1.0,92,0.00,,---,0.00,VWS V14.01,2013-05-04 07:40:00,
2013-05-04 03:42:00,56.0,54.9,29.84,SE,141,0.0,0.0,96,0.00,,---,0.00,VWS V14.01,2013-05-04 07:42:00,
2013-05-04 03:45:00,57.2,55.2,29.87,ENE,68,0.0,1.0,93,0.00,,---,0.00,VWS V14.01,2013-05-04 07:45:00,
2013-05-04 03:47:00,56.1,55.3,29.84,SE,141,0.0,0.0,97,0.00,,---,0.00,VWS V14.01,2013-05-04 07:47:00,
2013-05-04 03:50:00,57.0,55.0,29.87,ENE,68,1.0,2.0,93,0.00,,---,0.00,VWS V14.01,2013-05-04 07:50:00,
2013-05-04 03:52:00,56.0,55.2,29.84,SE,139,0.0,1.0,97,0.00,,---,0.00,VWS V14.01,2013-05-04 07:52:00,
2013-05-04 03:55:00,56.8,55.1,29.87,ESE,120,0.0,3.0,94,0.00,,---,0.00,VWS V14.01,2013-05-04 07:55:00,
2013-05-04 03:57:00,55.9,55.1,29.84,SE,140,0.0,0.0,97,0.00,,---,0.00,VWS V14.01,2013-05-04 07:57:00,
2013-05-04 04:00:00,56.7,55.0,29.86,ESE,120,2.0,2.0,94,0.00,,---,0.00,VWS V14.01,2013-05-04 08:00:00,
2013-05-04 04:02:00,55.9,55.1,29.84,SE,139,0.0,0.0,97,0.00,,---,0.00,VWS V14.01,2013-05-04 08:02:00,
2013-05-04 04:05:00,56.6,55.2,29.86,ESE,120,1.0,2.0,95,0.00,,---,0.00,VWS V14.01,2013-05-04 08:05:00,
2013-05-04 04:07:00,55.9,55.1,29.84,SE,139,0.0,0.0,97,0.00,,---,0.00,VWS V14.01,2013-05-04 08:07:00,
2013-05-04 04:10:00,56.5,55.1,29.86,SE,143,0.0,2.0,95,0.00,,---,0.00,VWS V14.01,2013-05-04 08:10:00,
2013-05-04 04:12:00,55.9,55.1,29.84,SE,139,0.0,1.0,97,0.00,,---,0.00,VWS V14.01,2013-05-04 08:12:00,
2013-05-04 04:15:00,56.5,55.4,29.85,SE,141,0.0,1.0,96,0.00,,---,0.00,VWS V14.01,2013-05-04 08:15:00,
2013-05-04 04:17:00,56.0,55.2,29.84,SE,139,0.0,0.0,97,0.00,,---,0.00,VWS V14.01,2013-05-04 08:17:00,
2013-05-04 04:20:00,56.4,55.3,29.85,SE,141,0.0,0.0,96,0.00,,---,0.00,VWS V14.01,2013-05-04 08:20:00,
2013-05-04 04:22:00,56.0,55.2,29.84,SE,139,0.0,0.0,97,0.00,,---,0.00,VWS V14.01,2013-05-04 08:22:00,
2013-05-04 04:25:00,56.4,55.3,29.85,SE,141,0.0,0.0,96,0.00,,---,0.00,VWS V14.01,2013-05-04 08:25:00,
2013-05-04 04:27:00,56.0,55.2,29.84,SE,139,0.0,0.0,97,0.00,,---,0.00,VWS V14.01,2013-05-04 08:27:00,
2013-05-04 04:30:00,56.3,55.2,29.84,SE,141,0.0,1.0,96,0.00,,---,0.00,VWS V14.01,2013-05-04 08:30:00,
2013-05-04 04:32:00,55.9,55.1,29.84,SE,139,0.0,0.0,97,0.00,,---,0.00,VWS V14.01,2013-05-04 08:32:00,
2013-05-04 04:35:00,56.1,55.0,29.85,SE,141,0.0,0.0,96,0.00,,---,0.00,VWS V14.01,2013-05-04 08:35:00,
2013-05-04 04:37:00,55.9,55.1,29.84,SE,139,0.0,0.0,97,0.00,,---,0.00,VWS V14.01,2013-05-04 08:37:00,
2013-05-04 04:40:00,56.0,54.9,29.84,SE,141,0.0,0.0,96,0.00,,---,0.00,VWS V14.01,2013-05-04 08:40:00,
2013-05-04 04:42:00,55.9,55.3,29.85,SE,139,0.0,0.0,98,0.00,,---,0.00,VWS V14.01,2013-05-04 08:42:00,
2013-05-04 04:45:00,56.1,55.0,29.84,SE,141,0.0,0.0,96,0.00,,---,0.00,VWS V14.01,2013-05-04 08:45:00,
2013-05-04 04:47:00,55.9,55.3,29.85,SE,139,0.0,0.0,98,0.00,,---,0.00,VWS V14.01,2013-05-04 08:47:00,
2013-05-04 04:50:00,56.0,55.2,29.84,SE,141,0.0,0.0,97,0.00,,---,0.00,VWS V14.01,2013-05-04 08:50:00,
2013-05-04 04:52:00,55.9,55.3,29.85,SE,139,0.0,0.0,98,0.00,,---,0.00,VWS V14.01,2013-05-04 08:52:00,
2013-05-04 04:55:00,55.9,55.1,29.84,SE,139,0.0,1.0,97,0.00,,---,0.00,VWS V14.01,2013-05-04 08:55:00,
2013-05-04 04:57:00,55.9,55.3,29.85,SE,140,0.0,0.0,98,0.00,,---,0.00,VWS V14.01,2013-05-04 08:57:00,
2013-05-04 05:00:00,55.9,55.1,29.84,SE,139,0.0,0.0,97,0.00,,---,0.00,VWS V14.01,2013-05-04 09:00:00,
2013-05-04 05:02:00,55.9,55.3,29.84,SE,139,0.0,0.0,98,0.00,,---,0.00,VWS V14.01,2013-05-04 09:02:00,
2013-05-04 05:05:00,55.9,55.1,29.84,SE,140,0.0,0.0,97,0.00,,---,0.00,VWS V14.01,2013-05-04 09:05:00,
2013-05-04 05:07:00,55.9,55.3,29.84,SE,139,0.0,0.0,98,0.00,,---,0.00,VWS V14.01,2013-05-04 09:07:00,
2013-05-04 05:10:00,55.9,55.1,29.84,SE,139,0.0,0.0,97,0.00,,---,0.00,VWS V14.01,2013-05-04 09:10:00,
2013-05-04 05:12:00,55.9,55.3,29.84,SE,139,0.0,0.0,98,0.00,,---,0.00,VWS V14.01,2013-05-04 09:12:00,
2013-05-04 05:15:00,55.9,55.1,29.84,SE,139,0.0,1.0,97,0.00,,---,0.00,VWS V14.01,2013-05-04 09:15:00,
2013-05-04 05:17:00,55.9,55.3,29.84,SE,139,0.0,0.0,98,0.00,,---,0.00,VWS V14.01,2013-05-04 09:17:00,
2013-05-04 05:20:00,56.0,55.2,29.84,SE,139,0.0,0.0,97,0.00,,---,0.00,VWS V14.01,2013-05-04 09:20:00,
2013-05-04 05:22:00,55.9,55.3,29.84,SE,139,0.0,0.0,98,0.00,,---,0.00,VWS V14.01,2013-05-04 09:22:00,
2013-05-04 05:25:00,56.0,55.2,29.84,SE,140,0.0,0.0,97,0.00,,---,0.00,VWS V14.01,2013-05-04 09:25:00,
2013-05-04 05:27:00,55.9,55.3,29.84,SE,140,0.0,0.0,98,0.00,,---,0.00,VWS V14.01,2013-05-04 09:27:00,
2013-05-04 05:30:00,55.9,55.1,29.84,SE,139,0.0,0.0,97,0.00,,---,0.00,VWS V14.01,2013-05-04 09:30:00,
2013-05-04 05:32:00,55.9,55.3,29.84,SE,139,0.0,0.0,98,0.00,,---,0.00,VWS V14.01,2013-05-04 09:32:00,
2013-05-04 05:35:00,55.9,55.1,29.84,SE,139,0.0,0.0,97,0.00,,---,0.00,VWS V14.01,2013-05-04 09:35:00,
2013-05-04 05:37:00,55.8,55.2,29.84,SE,139,0.0,0.0,98,0.00,,---,0.00,VWS V14.01,2013-05-04 09:37:00,
2013-05-04 05:40:00,55.9,55.1,29.84,SE,140,0.0,0.0,97,0.00,,---,0.00,VWS V14.01,2013-05-04 09:40:00,
2013-05-04 05:42:00,55.9,55.3,29.84,SE,139,0.0,0.0,98,0.00,,---,0.00,VWS V14.01,2013-05-04 09:42:00,
2013-05-04 05:45:00,55.9,55.3,29.85,SE,139,0.0,0.0,98,0.00,,---,0.00,VWS V14.01,2013-05-04 09:45:00,
2013-05-04 05:47:00,55.8,55.2,29.85,WNW,295,0.0,3.0,98,0.00,,---,0.00,VWS V14.01,2013-05-04 09:47:00,
2013-05-04 05:50:00,55.9,55.3,29.85,SE,139,0.0,0.0,98,0.00,,---,0.00,VWS V14.01,2013-05-04 09:50:00,
2013-05-04 05:52:00,55.5,54.7,29.85,NNW,339,0.0,1.0,97,0.00,,---,0.00,VWS V14.01,2013-05-04 09:52:00,
2013-05-04 05:55:00,55.9,55.3,29.85,SE,139,0.0,0.0,98,0.00,,---,0.00,VWS V14.01,2013-05-04 09:55:00,
2013-05-04 05:57:00,55.4,54.6,29.85,North,5,0.0,0.0,97,0.00,,---,0.00,VWS V14.01,2013-05-04 09:57:00,
2013-05-04 06:00:00,55.9,55.3,29.85,SE,139,0.0,0.0,98,0.00,,---,0.00,VWS V14.01,2013-05-04 10:00:00,
2013-05-04 06:02:00,55.3,54.5,29.86,NNE,23,1.0,2.0,97,0.00,,---,0.00,VWS V14.01,2013-05-04 10:02:00,
2013-05-04 06:05:00,55.9,55.3,29.84,SE,139,0.0,0.0,98,0.00,,---,0.00,VWS V14.01,2013-05-04 10:05:00,
2013-05-04 06:07:00,55.1,54.0,29.87,NNE,26,1.0,4.0,96,0.00,,---,0.00,VWS V14.01,2013-05-04 10:07:00,
2013-05-04 06:10:00,55.9,55.3,29.84,SE,139,0.0,0.0,98,0.00,,---,0.00,VWS V14.01,2013-05-04 10:10:00,
2013-05-04 06:12:00,55.0,53.6,29.87,NNW,340,1.0,3.0,95,0.00,,---,0.00,VWS V14.01,2013-05-04 10:12:00,
2013-05-04 06:15:00,55.9,55.3,29.84,SE,139,0.0,0.0,98,0.00,,---,0.00,VWS V14.01,2013-05-04 10:15:00,
2013-05-04 06:17:00,55.0,53.6,29.87,WNW,293,1.0,5.0,95,0.00,,---,0.00,VWS V14.01,2013-05-04 10:17:00,
2013-05-04 06:20:00,55.9,55.3,29.84,SE,139,0.0,0.0,98,0.00,,---,0.00,VWS V14.01,2013-05-04 10:20:00,
2013-05-04 06:22:00,55.0,53.6,29.87,WNW,295,0.0,0.0,95,0.00,,---,0.00,VWS V14.01,2013-05-04 10:22:00,
2013-05-04 06:25:00,55.9,55.3,29.84,SE,139,0.0,0.0,98,0.00,,---,0.00,VWS V14.01,2013-05-04 10:25:00,
2013-05-04 06:27:00,54.9,53.5,29.88,NW,315,0.0,0.0,95,0.00,,---,0.00,VWS V14.01,2013-05-04 10:27:00,
2013-05-04 06:30:00,55.8,55.2,29.84,SE,139,0.0,0.0,98,0.00,,---,0.00,VWS V14.01,2013-05-04 10:30:00,
2013-05-04 06:32:00,54.8,53.7,29.88,NW,315,0.0,0.0,96,0.00,,---,0.00,VWS V14.01,2013-05-04 10:32:00,
2013-05-04 06:35:00,55.9,55.3,29.84,SE,139,0.0,0.0,98,0.00,,---,0.00,VWS V14.01,2013-05-04 10:35:00,
2013-05-04 06:37:00,54.8,53.7,29.88,West,280,1.0,2.0,96,0.00,,---,0.00,VWS V14.01,2013-05-04 10:37:00,
2013-05-04 06:40:00,55.9,55.3,29.84,SE,139,0.0,0.0,98,0.00,,---,0.00,VWS V14.01,2013-05-04 10:40:00,
2013-05-04 06:42:00,54.8,54.0,29.88,NW,307,0.0,0.0,97,0.00,,---,0.00,VWS V14.01,2013-05-04 10:42:00,
2013-05-04 06:45:00,55.9,55.3,29.84,NW,308,1.0,2.0,98,0.00,,---,0.00,VWS V14.01,2013-05-04 10:45:00,
2013-05-04 06:47:00,54.7,53.6,29.88,West,265,2.0,3.0,96,0.00,,---,0.00,VWS V14.01,2013-05-04 10:47:00,
2013-05-04 06:50:00,55.6,54.8,29.85,NNW,338,0.0,3.0,97,0.00,,---,0.00,VWS V14.01,2013-05-04 10:50:00,
2013-05-04 06:52:00,54.6,53.5,29.89,NE,48,4.0,4.0,96,0.00,,---,0.00,VWS V14.01,2013-05-04 10:52:00,
2013-05-04 06:55:00,55.5,54.7,29.85,North,4,0.0,1.0,97,0.00,,---,0.00,VWS V14.01,2013-05-04 10:55:00,
2013-05-04 06:57:00,54.6,53.5,29.89,NE,36,2.0,3.0,96,0.00,,---,0.00,VWS V14.01,2013-05-04 10:57:00,
2013-05-04 07:00:00,55.4,54.6,29.85,North,4,0.0,0.0,97,0.00,,---,0.00,VWS V14.01,2013-05-04 11:00:00,
2013-05-04 07:02:00,54.5,53.4,29.89,ENE,57,0.0,3.0,96,0.00,,---,0.00,VWS V14.01,2013-05-04 11:02:00,
2013-05-04 07:05:00,55.2,54.1,29.86,NNW,330,0.0,4.0,96,0.00,,---,0.00,VWS V14.01,2013-05-04 11:05:00,
2013-05-04 07:07:00,54.4,53.3,29.88,NE,51,0.0,1.0,96,0.00,,---,0.00,VWS V14.01,2013-05-04 11:07:00,
2013-05-04 07:10:00,55.1,54.0,29.87,NNW,339,0.0,4.0,96,0.00,,---,0.00,VWS V14.01,2013-05-04 11:10:00,
2013-05-04 07:12:00,54.3,53.2,29.88,NNW,333,1.0,1.0,96,0.00,,---,0.00,VWS V14.01,2013-05-04 11:12:00,
2013-05-04 07:15:00,55.0,53.6,29.87,North,5,3.0,4.0,95,0.00,,---,0.00,VWS V14.01,2013-05-04 11:15:00,
2013-05-04 07:17:00,54.2,53.4,29.88,West,267,2.0,2.0,97,0.00,,---,0.00,VWS V14.01,2013-05-04 11:17:00,
2013-05-04 07:20:00,55.0,53.6,29.87,WNW,295,0.0,5.0,95,0.00,,---,0.00,VWS V14.01,2013-05-04 11:20:00,
2013-05-04 07:22:00,54.0,53.2,29.88,NW,304,1.0,2.0,97,0.00,,---,0.00,VWS V14.01,2013-05-04 11:22:00,
2013-05-04 07:25:00,55.0,53.6,29.87,NW,315,0.0,0.0,95,0.00,,---,0.00,VWS V14.01,2013-05-04 11:25:00,
2013-05-04 07:27:00,54.0,53.2,29.88,WNW,302,1.0,1.0,97,0.00,,---,0.00,VWS V14.01,2013-05-04 11:27:00,
2013-05-04 07:30:00,54.9,53.5,29.88,NW,315,0.0,0.0,95,0.00,,---,0.00,VWS V14.01,2013-05-04 11:30:00,
2013-05-04 07:32:00,53.9,53.1,29.88,NNW,347,1.0,2.0,97,0.00,,---,0.00,VWS V14.01,2013-05-04 11:32:00,
2013-05-04 07:35:00,54.8,53.7,29.88,WNW,290,1.0,2.0,96,0.00,,---,0.00,VWS V14.01,2013-05-04 11:35:00,
2013-05-04 07:37:00,53.8,53.0,29.87,WNW,295,0.0,2.0,97,0.00,,---,0.00,VWS V14.01,2013-05-04 11:37:00,
2013-05-04 07:40:00,54.8,53.7,29.88,NW,306,0.0,2.0,96,0.00,,---,0.00,VWS V14.01,2013-05-04 11:40:00,
2013-05-04 07:42:00,53.7,52.9,29.87,West,278,1.0,2.0,97,0.00,,---,0.00,VWS V14.01,2013-05-04 11:42:00,
2013-05-04 07:45:00,54.7,53.6,29.88,NW,315,0.0,2.0,96,0.00,,---,0.00,VWS V14.01,2013-05-04 11:45:00,
2013-05-04 07:48:00,53.6,52.8,29.87,NW,316,0.0,1.0,97,0.00,,---,0.00,VWS V14.01,2013-05-04 11:48:00,
2013-05-04 07:50:00,54.6,53.5,29.88,North,4,3.0,3.0,96,0.00,,---,0.00,VWS V14.01,2013-05-04 11:50:00,
2013-05-04 07:54:00,53.5,52.7,29.88,NW,316,0.0,0.0,97,0.00,,---,0.00,VWS V14.01,2013-05-04 11:54:00,
2013-05-04 07:55:00,54.6,53.5,29.89,North,1,1.0,4.0,96,0.00,,---,0.00,VWS V14.01,2013-05-04 11:55:00,
2013-05-04 08:00:00,53.4,52.6,29.88,NW,307,0.0,1.0,97,0.00,,---,0.00,VWS V14.01,2013-05-04 12:00:00,
2013-05-04 08:05:00,53.4,52.6,29.89,NW,308,0.0,0.0,97,0.00,,---,0.00,VWS V14.01,2013-05-04 12:05:00,
2013-05-04 08:10:00,53.3,52.5,29.89,NW,308,0.0,1.0,97,0.00,,---,0.00,VWS V14.01,2013-05-04 12:10:00,
2013-05-04 08:15:00,53.4,52.6,29.88,NW,308,0.0,0.0,97,0.00,,---,0.00,VWS V14.01,2013-05-04 12:15:00,
2013-05-04 08:20:00,53.4,52.6,29.88,NW,307,0.0,0.0,97,0.00,,---,0.00,VWS V14.01,2013-05-04 12:20:00,
2013-05-04 08:25:00,53.4,52.6,29.88,NW,307,0.0,1.0,97,0.00,,---,0.00,VWS V14.01,2013-05-04 12:25:00,
2013-05-04 08:30:00,53.3,52.5,29.88,NNW,342,0.0,1.0,97,0.00,,---,0.00,VWS V14.01,2013-05-04 12:30:00,
2013-05-04 08:35:00,53.8,53.0,29.87,NW,316,1.0,3.0,97,0.00,,---,0.00,VWS V14.01,2013-05-04 12:35:00,
2013-05-04 08:36:00,53.1,52.3,29.87,WNW,290,0.0,1.0,97,0.00,,---,0.00,VWS V14.01,2013-05-04 12:36:00,
2013-05-04 08:40:00,53.7,52.9,29.87,WNW,293,1.0,3.0,97,0.00,,---,0.00,VWS V14.01,2013-05-04 12:40:00,
2013-05-04 08:41:00,53.0,52.2,29.87,WNW,288,0.0,1.0,97,0.00,,---,0.00,VWS V14.01,2013-05-04 12:41:00,
2013-05-04 08:45:00,53.6,52.8,29.87,WNW,287,0.0,2.0,97,0.00,,---,0.00,VWS V14.01,2013-05-04 12:45:00,
2013-05-04 08:46:00,52.8,52.0,29.87,West,277,1.0,2.0,97,0.00,,---,0.00,VWS V14.01,2013-05-04 12:46:00,
2013-05-04 08:50:00,53.6,52.8,29.88,NW,316,0.0,1.0,97,0.00,,---,0.00,VWS V14.01,2013-05-04 12:50:00,
2013-05-04 08:51:00,52.8,52.0,29.87,WNW,287,1.0,1.0,97,0.00,,---,0.00,VWS V14.01,2013-05-04 12:51:00,
2013-05-04 08:55:00,53.5,52.7,29.88,NW,316,0.0,1.0,97,0.00,,---,0.00,VWS V14.01,2013-05-04 12:55:00,
2013-05-04 08:56:00,52.7,51.9,29.87,WSW,238,0.0,4.0,97,0.00,,---,0.00,VWS V14.01,2013-05-04 12:56:00,
2013-05-04 09:00:00,53.4,52.6,29.88,NW,308,0.0,1.0,97,0.00,,---,0.00,VWS V14.01,2013-05-04 13:00:00,
2013-05-04 09:01:00,52.6,51.8,29.87,WNW,283,0.0,0.0,97,0.00,,---,0.00,VWS V14.01,2013-05-04 13:01:00,
2013-05-04 09:03:00,52.6,51.8,29.86,West,279,1.0,2.0,97,0.00,,---,0.00,VWS V14.01,2013-05-04 13:03:00,
2013-05-04 09:05:00,53.4,52.6,29.89,NW,308,0.0,0.0,97,0.00,,---,0.00,VWS V14.01,2013-05-04 13:05:00,
2013-05-04 09:08:00,52.6,51.8,29.86,West,278,1.0,2.0,97,0.00,,---,0.00,VWS V14.01,2013-05-04 13:08:00,
2013-05-04 09:10:00,53.3,52.5,29.89,NW,308,0.0,1.0,97,0.00,,---,0.00,VWS V14.01,2013-05-04 13:10:00,
2013-05-04 09:13:00,52.4,51.6,29.86,West,268,1.0,6.0,97,0.00,,---,0.00,VWS V14.01,2013-05-04 13:13:00,
2013-05-04 09:15:00,53.4,52.6,29.88,NW,308,0.0,0.0,97,0.00,,---,0.00,VWS V14.01,2013-05-04 13:15:00,
2013-05-04 09:19:00,52.5,52.0,29.86,ESE,107,1.0,1.0,98,0.00,,---,0.00,VWS V14.01,2013-05-04 13:19:00,
2013-05-04 09:20:00,53.4,52.6,29.88,NW,307,0.0,0.0,97,0.00,,---,0.00,VWS V14.01,2013-05-04 13:20:00,
2013-05-04 09:24:00,52.5,51.7,29.86,SE,138,0.0,3.0,97,0.00,,---,0.00,VWS V14.01,2013-05-04 13:24:00,
2013-05-04 09:25:00,53.4,52.6,29.88,NW,308,1.0,1.0,97,0.00,,---,0.00,VWS V14.01,2013-05-04 13:25:00,
2013-05-04 09:29:00,52.6,52.0,29.86,SW,228,1.0,3.0,98,0.00,,---,0.00,VWS V14.01,2013-05-04 13:29:00,
2013-05-04 09:30:00,53.3,52.5,29.88,NNW,343,1.0,1.0,97,0.00,,---,0.00,VWS V14.01,2013-05-04 13:30:00,
2013-05-04 09:34:00,52.6,51.8,29.86,SW,231,0.0,2.0,97,0.00,,---,0.00,VWS V14.01,2013-05-04 13:34:00,
2013-05-04 09:35:00,53.2,52.4,29.87,WNW,290,1.0,2.0,97,0.00,,---,0.00,VWS V14.01,2013-05-04 13:35:00,
2013-05-04 09:39:00,52.6,52.0,29.86,West,278,0.0,3.0,98,0.00,,---,0.00,VWS V14.01,2013-05-04 13:39:00,
2013-05-04 09:40:00,53.0,52.2,29.87,WNW,288,0.0,1.0,97,0.00,,---,0.00,VWS V14.01,2013-05-04 13:40:00,
2013-05-04 09:44:00,52.7,52.2,29.86,West,259,0.0,2.0,98,0.00,,---,0.00,VWS V14.01,2013-05-04 13:44:00,
2013-05-04 09:45:00,52.8,52.0,29.87,West,276,1.0,2.0,97,0.00,,---,0.00,VWS V14.01,2013-05-04 13:45:00,
2013-05-04 09:49:00,52.9,52.3,29.87,West,259,0.0,1.0,98,0.00,,---,0.00,VWS V14.01,2013-05-04 13:49:00,
2013-05-04 09:50:00,52.8,52.0,29.87,WSW,253,0.0,2.0,97,0.00,,---,0.00,VWS V14.01,2013-05-04 13:50:00,
2013-05-04 09:54:00,53.0,52.5,29.87,WSW,257,1.0,1.0,98,0.00,,---,0.00,VWS V14.01,2013-05-04 13:54:00,
2013-05-04 09:55:00,52.7,51.9,29.87,West,281,1.0,2.0,97,0.00,,---,0.00,VWS V14.01,2013-05-04 13:55:00,
2013-05-04 09:59:00,53.0,52.5,29.87,NNW,336,1.0,1.0,98,0.00,,---,0.00,VWS V14.01,2013-05-04 13:59:00,
2013-05-04 10:00:00,52.6,51.8,29.87,WNW,282,0.0,4.0,97,0.00,,---,0.00,VWS V14.01,2013-05-04 14:00:00,
2013-05-04 10:04:00,52.8,52.0,29.87,WNW,288,0.0,2.0,97,0.00,,---,0.00,VWS V14.01,2013-05-04 14:04:00,
2013-05-04 10:05:00,52.6,51.8,29.86,West,280,1.0,2.0,97,0.00,,---,0.00,VWS V14.01,2013-05-04 14:05:00,
2013-05-04 10:09:00,52.8,52.2,29.88,WNW,288,0.0,0.0,98,0.00,,---,0.00,VWS V14.01,2013-05-04 14:09:00,
2013-05-04 10:10:00,52.6,51.8,29.86,WSW,253,3.0,3.0,97,0.00,,---,0.00,VWS V14.01,2013-05-04 14:10:00,
2013-05-04 10:14:00,52.8,52.2,29.88,WNW,289,0.0,1.0,98,0.00,,---,0.00,VWS V14.01,2013-05-04 14:14:00,
2013-05-04 10:15:00,52.4,51.6,29.86,NNW,330,0.0,6.0,97,0.00,,---,0.00,VWS V14.01,2013-05-04 14:15:00,
2013-05-04 10:19:00,52.8,52.2,29.88,WNW,289,0.0,1.0,98,0.00,,---,0.00,VWS V14.01,2013-05-04 14:19:00,
2013-05-04 10:20:00,52.5,52.0,29.86,ESE,108,0.0,2.0,98,0.00,,---,0.00,VWS V14.01,2013-05-04 14:20:00,
2013-05-04 10:24:00,52.7,51.9,29.88,WNW,289,0.0,1.0,97,0.00,,---,0.00,VWS V14.01,2013-05-04 14:24:00,
2013-05-04 10:25:00,52.5,51.7,29.86,SE,132,0.0,3.0,97,0.00,,---,0.00,VWS V14.01,2013-05-04 14:25:00,
2013-05-04 10:29:00,52.6,51.8,29.88,WNW,288,1.0,1.0,97,0.00,,---,0.00,VWS V14.01,2013-05-04 14:29:00,
2013-05-04 10:30:00,52.6,52.0,29.86,WNW,294,2.0,4.0,98,0.00,,---,0.00,VWS V14.01,2013-05-04 14:30:00,
2013-05-04 10:34:00,52.5,52.0,29.89,WNW,290,1.0,1.0,98,0.00,,---,0.00,VWS V14.01,2013-05-04 14:34:00,
2013-05-04 10:35:00,52.6,52.0,29.86,SW,231,0.0,2.0,98,0.00,,---,0.00,VWS V14.01,2013-05-04 14:35:00,
2013-05-04 10:39:00,52.4,51.8,29.88,WSW,251,0.0,1.0,98,0.00,,---,0.00,VWS V14.01,2013-05-04 14:39:00,
2013-05-04 10:40:00,52.7,52.2,29.86,WNW,290,2.0,3.0,98,0.00,,---,0.00,VWS V14.01,2013-05-04 14:40:00,
2013-05-04 10:44:00,52.5,52.0,29.88,West,259,2.0,3.0,98,0.00,,---,0.00,VWS V14.01,2013-05-04 14:44:00,
2013-05-04 10:45:00,52.7,52.2,29.86,West,259,0.0,2.0,98,0.00,,---,0.00,VWS V14.01,2013-05-04 14:45:00,
2013-05-04 10:49:00,52.4,51.8,29.86,West,274,1.0,4.0,98,0.00,,---,0.00,VWS V14.01,2013-05-04 14:49:00,
2013-05-04 10:50:00,52.9,52.3,29.87,West,259,0.0,1.0,98,0.00,,---,0.00,VWS V14.01,2013-05-04 14:50:00,
2013-05-04 10:54:00,52.4,51.8,29.86,West,280,0.0,5.0,98,0.00,,---,0.00,VWS V14.01,2013-05-04 14:54:00,
2013-05-04 10:55:00,53.0,52.5,29.87,NNW,348,0.0,1.0,98,0.00,,---,0.00,VWS V14.01,2013-05-04 14:55:00,
2013-05-04 10:59:00,52.4,51.8,29.86,SSW,198,2.0,4.0,98,0.00,,---,0.00,VWS V14.01,2013-05-04 14:59:00,
2013-05-04 11:00:00,52.9,52.3,29.87,West,264,1.0,2.0,98,0.00,,---,0.00,VWS V14.01,2013-05-04 15:00:00,
2013-05-04 11:04:00,52.4,51.8,29.86,WSW,253,1.0,3.0,98,0.00,,---,0.00,VWS V14.01,2013-05-04 15:04:00,
2013-05-04 11:05:00,52.8,52.0,29.87,WNW,288,0.0,2.0,97,0.00,,---,0.00,VWS V14.01,2013-05-04 15:05:00,
2013-05-04 11:09:00,52.4,51.8,29.86,WNW,287,2.0,5.0,98,0.00,,---,0.00,VWS V14.01,2013-05-04 15:09:00,
2013-05-04 11:10:00,52.8,52.2,29.88,WNW,288,0.0,0.0,98,0.00,,---,0.00,VWS V14.01,2013-05-04 15:10:00,
2013-05-04 11:14:00,52.6,52.0,29.87,West,263,0.0,1.0,98,0.00,,---,0.00,VWS V14.01,2013-05-04 15:14:00,
2013-05-04 11:15:00,52.9,52.3,29.88,WNW,290,0.0,1.0,98,0.00,,---,0.00,VWS V14.01,2013-05-04 15:15:00,
2013-05-04 11:19:00,52.7,52.2,29.87,WSW,245,1.0,3.0,98,0.00,,---,0.00,VWS V14.01,2013-05-04 15:19:00,
2013-05-04 11:20:00,52.8,52.2,29.88,WNW,289,0.0,1.0,98,0.00,,---,0.00,VWS V14.01,2013-05-04 15:20:00,
2013-05-04 11:24:00,52.8,52.2,29.88,East,89,0.0,2.0,98,0.00,,---,0.00,VWS V14.01,2013-05-04 15:24:00,
2013-05-04 11:25:00,52.6,51.8,29.88,WNW,290,0.0,1.0,97,0.00,,---,0.00,VWS V14.01,2013-05-04 15:25:00,
2013-05-04 11:29:00,52.7,52.2,29.88,WSW,240,0.0,4.0,98,0.00,,---,0.00,VWS V14.01,2013-05-04 15:29:00,
2013-05-04 11:30:00,52.5,51.7,29.88,WNW,288,0.0,1.0,97,0.00,,---,0.00,VWS V14.01,2013-05-04 15:30:00,
2013-05-04 11:34:00,52.8,52.2,29.88,WSW,240,0.0,1.0,98,0.00,,---,0.00,VWS V14.01,2013-05-04 15:34:00,
2013-05-04 11:35:00,52.4,51.6,29.89,WSW,250,0.0,3.0,97,0.00,,---,0.00,VWS V14.01,2013-05-04 15:35:00,
2013-05-04 11:39:00,52.8,52.2,29.88,WSW,240,0.0,0.0,98,0.00,,---,0.00,VWS V14.01,2013-05-04 15:39:00,
2013-05-04 11:40:00,52.4,51.8,29.88,WSW,252,0.0,1.0,98,0.00,,---,0.00,VWS V14.01,2013-05-04 15:40:00,
2013-05-04 11:44:00,52.9,52.3,29.88,WSW,240,0.0,1.0,98,0.00,,---,0.00,VWS V14.01,2013-05-04 15:44:00,
2013-05-04 11:45:00,52.5,52.0,29.87,WSW,252,2.0,3.0,98,0.00,,---,0.00,VWS V14.01,2013-05-04 15:45:00,
2013-05-04 11:49:00,53.0,52.5,29.89,WSW,240,1.0,1.0,98,0.00,,---,0.00,VWS V14.01,2013-05-04 15:49:00,
2013-05-04 11:50:00,52.4,51.8,29.86,WSW,238,0.0,4.0,98,0.00,,---,0.00,VWS V14.01,2013-05-04 15:50:00,
2013-05-04 11:54:00,53.1,52.5,29.88,WSW,240,0.0,1.0,98,0.00,,---,0.00,VWS V14.01,2013-05-04 15:54:00,
2013-05-04 11:55:00,52.4,51.8,29.86,WNW,287,0.0,5.0,98,0.00,,---,0.00,VWS V14.01,2013-05-04 15:55:00,
2013-05-04 11:59:00,53.0,52.5,29.89,WSW,242,0.0,0.0,98,0.00,,---,0.00,VWS V14.01,2013-05-04 15:59:00,
2013-05-04 12:00:00,52.4,51.8,29.86,West,260,2.0,5.0,98,0.00,,---,0.00,VWS V14.01,2013-05-04 16:00:00,
2013-05-04 12:04:00,53.0,52.5,29.89,WSW,242,0.0,1.0,98,0.00,,---,0.00,VWS V14.01,2013-05-04 16:04:00,
2013-05-04 12:05:00,52.4,51.8,29.86,West,280,0.0,3.0,98,0.00,,---,0.00,VWS V14.01,2013-05-04 16:05:00,
2013-05-04 12:09:00,53.0,52.5,29.89,ESE,115,0.0,1.0,98,0.00,,---,0.00,VWS V14.01,2013-05-04 16:09:00,
2013-05-04 12:10:00,52.4,51.8,29.86,West,263,0.0,5.0,98,0.00,,---,0.00,VWS V14.01,2013-05-04 16:10:00,
2013-05-04 12:14:00,52.9,52.3,29.89,West,261,0.0,1.0,98,0.00,,---,0.00,VWS V14.01,2013-05-04 16:14:00,
2013-05-04 12:15:00,52.6,52.0,29.87,NW,326,0.0,1.0,98,0.00,,---,0.00,VWS V14.01,2013-05-04 16:15:00,
2013-05-04 12:19:00,52.9,52.3,29.89,West,262,0.0,1.0,98,0.00,,---,0.00,VWS V14.01,2013-05-04 16:19:00,
2013-05-04 12:20:00,52.7,52.2,29.87,WSW,245,0.0,3.0,98,0.00,,---,0.00,VWS V14.01,2013-05-04 16:20:00,
2013-05-04 12:24:00,52.9,52.3,29.89,West,261,0.0,0.0,98,0.00,,---,0.00,VWS V14.01,2013-05-04 16:24:00,
2013-05-04 12:25:00,52.8,52.2,29.88,East,89,0.0,2.0,98,0.00,,---,0.00,VWS V14.01,2013-05-04 16:25:00,
2013-05-04 12:29:00,53.0,52.5,29.89,West,276,0.0,1.0,98,0.00,,---,0.00,VWS V14.01,2013-05-04 16:29:00,
2013-05-04 12:30:00,52.7,52.2,29.88,WSW,240,0.0,4.0,98,0.00,,---,0.00,VWS V14.01,2013-05-04 16:30:00,
2013-05-04 12:34:00,53.0,52.5,29.89,West,276,0.0,1.0,98,0.00,,---,0.00,VWS V14.01,2013-05-04 16:34:00,
2013-05-04 12:35:00,52.8,52.2,29.88,WSW,240,0.0,1.0,98,0.00,,---,0.00,VWS V14.01,2013-05-04 16:35:00,
2013-05-04 12:39:00,52.9,52.3,29.89,WNW,288,1.0,2.0,98,0.00,,---,0.00,VWS V14.01,2013-05-04 16:39:00,
2013-05-04 12:40:00,52.8,52.2,29.89,WSW,240,0.0,0.0,98,0.00,,---,0.00,VWS V14.01,2013-05-04 16:40:00,
2013-05-04 12:44:00,52.8,52.2,29.88,WNW,296,1.0,2.0,98,0.00,,---,0.00,VWS V14.01,2013-05-04 16:44:00,
2013-05-04 12:45:00,52.9,52.3,29.88,WSW,240,0.0,1.0,98,0.00,,---,0.00,VWS V14.01,2013-05-04 16:45:00,
2013-05-04 12:49:00,52.8,52.2,29.88,WNW,295,0.0,1.0,98,0.00,,---,0.00,VWS V14.01,2013-05-04 16:49:00,
2013-05-04 12:50:00,53.0,52.5,29.89,WSW,240,0.0,1.0,98,0.00,,---,0.00,VWS V14.01,2013-05-04 16:50:00,
2013-05-04 12:54:00,52.7,52.2,29.88,WNW,297,0.0,1.0,98,0.00,,---,0.00,VWS V14.01,2013-05-04 16:54:00,
2013-05-04 12:55:00,53.0,52.5,29.88,WSW,240,0.0,1.0,98,0.00,,---,0.00,VWS V14.01,2013-05-04 16:55:00,
2013-05-04 12:59:00,52.6,52.0,29.88,NNE,30,0.0,1.0,98,0.00,,---,0.00,VWS V14.01,2013-05-04 16:59:00,
2013-05-04 13:00:00,53.0,52.5,29.89,WSW,242,0.0,1.0,98,0.00,,---,0.00,VWS V14.01,2013-05-04 17:00:00,
2013-05-04 13:04:00,52.5,52.0,29.88,East,90,1.0,2.0,98,0.00,,---,0.00,VWS V14.01,2013-05-04 17:04:00,
2013-05-04 13:05:00,53.0,52.5,29.89,ESE,117,1.0,2.0,98,0.00,,---,0.00,VWS V14.01,2013-05-04 17:05:00,
2013-05-04 13:09:00,52.4,51.8,29.89,East,89,0.0,1.0,98,0.00,,---,0.00,VWS V14.01,2013-05-04 17:09:00,
2013-05-04 13:10:00,53.0,52.5,29.88,West,262,0.0,2.0,98,0.00,,---,0.00,VWS V14.01,2013-05-04 17:10:00,
2013-05-04 13:14:00,52.4,51.8,29.89,East,89,0.0,2.0,98,0.00,,---,0.00,VWS V14.01,2013-05-04 17:14:00,
2013-05-04 13:15:00,52.9,52.3,29.89,West,262,1.0,1.0,98,0.00,,---,0.00,VWS V14.01,2013-05-04 17:15:00,
2013-05-04 13:19:00,52.5,52.0,29.89,NW,321,1.0,2.0,98,0.00,,---,0.00,VWS V14.01,2013-05-04 17:19:00,
2013-05-04 13:20:00,52.9,52.3,29.89,West,262,0.0,1.0,98,0.00,,---,0.00,VWS V14.01,2013-05-04 17:20:00,
2013-05-04 13:24:00,52.6,52.0,29.90,NW,322,1.0,1.0,98,0.00,,---,0.00,VWS V14.01,2013-05-04 17:24:00,
2013-05-04 13:25:00,52.9,52.3,29.89,West,262,0.0,1.0,98,0.00,,---,0.00,VWS V14.01,2013-05-04 17:25:00,
2013-05-04 13:29:00,52.5,52.0,29.90,NE,34,1.0,1.0,98,0.00,,---,0.00,VWS V14.01,2013-05-04 17:29:00,
2013-05-04 13:30:00,53.1,52.5,29.89,West,276,0.0,1.0,98,0.00,,---,0.00,VWS V14.01,2013-05-04 17:30:00,
2013-05-04 13:34:00,52.6,52.0,29.90,ENE,59,1.0,2.0,98,0.00,,---,0.00,VWS V14.01,2013-05-04 17:34:00,
2013-05-04 13:35:00,53.1,52.5,29.89,West,278,0.0,1.0,98,0.00,,---,0.00,VWS V14.01,2013-05-04 17:35:00,
2013-05-04 13:39:00,52.7,52.4,29.91,NNE,22,0.0,3.0,99,0.00,,---,0.00,VWS V14.01,2013-05-04 17:39:00,
2013-05-04 13:40:00,52.9,52.3,29.89,WNW,288,1.0,2.0,98,0.00,,---,0.00,VWS V14.01,2013-05-04 17:40:00,
2013-05-04 13:44:00,52.8,52.5,29.90,ESE,105,3.0,6.0,99,0.00,,---,0.00,VWS V14.01,2013-05-04 17:44:00,
2013-05-04 13:45:00,52.8,52.2,29.88,NW,314,1.0,2.0,98,0.00,,---,0.00,VWS V14.01,2013-05-04 17:45:00,
2013-05-04 13:49:00,52.9,52.6,29.90,East,89,1.0,5.0,99,0.00,,---,0.00,VWS V14.01,2013-05-04 17:49:00,
2013-05-04 13:50:00,52.7,52.2,29.88,WNW,295,1.0,1.0,98,0.00,,---,0.00,VWS V14.01,2013-05-04 17:50:00,
2013-05-04 13:54:00,53.1,52.8,29.90,NNE,33,1.0,2.0,99,0.00,,---,0.00,VWS V14.01,2013-05-04 17:54:00,
2013-05-04 13:55:00,52.7,52.2,29.88,WNW,297,0.0,1.0,98,0.00,,---,0.00,VWS V14.01,2013-05-04 17:55:00,
2013-05-04 13:59:00,53.3,53.0,29.89,North,9,1.0,2.0,99,0.00,,---,0.00,VWS V14.01,2013-05-04 17:59:00,
2013-05-04 14:00:00,52.6,52.0,29.88,NNE,30,0.0,1.0,98,0.00,,---,0.00,VWS V14.01,2013-05-04 18:00:00,
2013-05-04 14:04:00,53.3,52.8,29.89,NNE,22,0.0,1.0,98,0.00,,---,0.00,VWS V14.01,2013-05-04 18:04:00,
2013-05-04 14:05:00,52.5,52.0,29.88,East,89,0.0,2.0,98,0.00,,---,0.00,VWS V14.01,2013-05-04 18:05:00,
2013-05-04 14:09:00,53.3,52.8,29.89,NE,53,0.0,2.0,98,0.00,,---,0.00,VWS V14.01,2013-05-04 18:09:00,
2013-05-04 14:10:00,52.4,51.8,29.89,East,89,0.0,1.0,98,0.00,,---,0.00,VWS V14.01,2013-05-04 18:10:00,
2013-05-04 14:14:00,53.3,52.8,29.89,NE,52,0.0,2.0,98,0.00,,---,0.00,VWS V14.01,2013-05-04 18:14:00,
2013-05-04 14:15:00,52.4,51.8,29.89,East,89,0.0,2.0,98,0.00,,---,0.00,VWS V14.01,2013-05-04 18:15:00,
2013-05-04 14:19:00,53.3,52.8,29.89,ENE,76,0.0,3.0,98,0.00,,---,0.00,VWS V14.01,2013-05-04 18:19:00,
2013-05-04 14:20:00,52.5,52.0,29.90,NW,322,0.0,2.0,98,0.00,,---,0.00,VWS V14.01,2013-05-04 18:20:00,
2013-05-04 14:24:00,53.7,53.2,29.88,ENE,67,1.0,1.0,98,0.00,,---,0.00,VWS V14.01,2013-05-04 18:24:00,
2013-05-04 14:25:00,52.5,52.0,29.90,NW,322,0.0,1.0,98,0.00,,---,0.00,VWS V14.01,2013-05-04 18:25:00,
2013-05-04 14:29:00,53.8,53.2,29.88,ENE,78,2.0,2.0,98,0.00,,---,0.00,VWS V14.01,2013-05-04 18:29:00,
2013-05-04 14:30:00,52.5,52.0,29.90,NE,46,2.0,2.0,98,0.00,,---,0.00,VWS V14.01,2013-05-04 18:30:00,
2013-05-04 14:34:00,53.9,53.3,29.88,NNE,30,2.0,3.0,98,0.00,,---,0.00,VWS V14.01,2013-05-04 18:34:00,
2013-05-04 14:35:00,52.6,52.3,29.90,NE,52,1.0,2.0,99,0.00,,---,0.00,VWS V14.01,2013-05-04 18:35:00,
2013-05-04 14:39:00,54.0,53.2,29.89,NE,52,1.0,3.0,97,0.00,,---,0.00,VWS V14.01,2013-05-04 18:39:00,
2013-05-04 14:40:00,52.7,52.4,29.91,NNE,17,0.0,3.0,99,0.00,,---,0.00,VWS V14.01,2013-05-04 18:40:00,
2013-05-04 14:44:00,54.3,53.8,29.89,NE,51,0.0,1.0,98,0.00,,---,0.00,VWS V14.01,2013-05-04 18:44:00,
2013-05-04 14:45:00,52.8,52.5,29.90,ESE,104,1.0,6.0,99,0.00,,---,0.00,VWS V14.01,2013-05-04 18:45:00,
2013-05-04 14:49:00,54.3,53.5,29.89,ENE,57,0.0,3.0,97,0.00,,---,0.00,VWS V14.01,2013-05-04 18:49:00,
2013-05-04 14:50:00,52.9,52.6,29.90,NE,56,2.0,5.0,99,0.00,,---,0.00,VWS V14.01,2013-05-04 18:50:00,
2013-05-04 14:54:00,54.3,53.2,29.90,ENE,76,1.0,3.0,96,0.00,,---,0.00,VWS V14.01,2013-05-04 18:54:00,
2013-05-04 14:55:00,53.1,52.8,29.90,North,11,2.0,4.0,99,0.00,,---,0.00,VWS V14.01,2013-05-04 18:55:00,
2013-05-04 14:59:00,54.1,53.0,29.90,NNE,31,0.0,3.0,96,0.00,,---,0.00,VWS V14.01,2013-05-04 18:59:00,
2013-05-04 15:00:00,53.3,53.0,29.89,NNE,22,1.0,2.0,99,0.00,,---,0.00,VWS V14.01,2013-05-04 19:00:00,
2013-05-04 15:04:00,53.9,52.8,29.90,East,87,1.0,5.0,96,0.00,,---,0.00,VWS V14.01,2013-05-04 19:04:00,
2013-05-04 15:05:00,53.3,52.8,29.89,NNE,22,0.0,1.0,98,0.00,,---,0.00,VWS V14.01,2013-05-04 19:05:00,
2013-05-04 15:09:00,53.7,52.6,29.90,East,87,1.0,5.0,96,0.00,,---,0.00,VWS V14.01,2013-05-04 19:09:00,
2013-05-04 15:10:00,53.4,52.8,29.89,NE,53,1.0,2.0,98,0.00,,---,0.00,VWS V14.01,2013-05-04 19:10:00,
2013-05-04 15:14:00,53.6,52.8,29.91,North,1,1.0,5.0,97,0.00,,---,0.00,VWS V14.01,2013-05-04 19:14:00,
2013-05-04 15:15:00,53.3,52.8,29.89,NE,53,0.0,2.0,98,0.00,,---,0.00,VWS V14.01,2013-05-04 19:15:00,
2013-05-04 15:19:00,53.6,52.8,29.91,ESE,110,0.0,3.0,97,0.00,,---,0.00,VWS V14.01,2013-05-04 19:19:00,
2013-05-04 15:20:00,53.4,52.8,29.89,ENE,76,0.0,3.0,98,0.00,,---,0.00,VWS V14.01,2013-05-04 19:20:00,
2013-05-04 15:24:00,53.5,52.7,29.90,NNE,25,1.0,4.0,97,0.00,,---,0.00,VWS V14.01,2013-05-04 19:24:00,
2013-05-04 15:25:00,53.7,53.2,29.88,ENE,66,1.0,1.0,98,0.00,,---,0.00,VWS V14.01,2013-05-04 19:25:00,
2013-05-04 15:29:00,53.6,52.8,29.90,ENE,68,2.0,2.0,97,0.00,,---,0.00,VWS V14.01,2013-05-04 19:29:00,
2013-05-04 15:30:00,53.7,53.2,29.88,East,86,1.0,2.0,98,0.00,,---,0.00,VWS V14.01,2013-05-04 19:30:00,
2013-05-04 15:34:00,53.4,52.6,29.89,East,90,1.0,3.0,97,0.00,,---,0.00,VWS V14.01,2013-05-04 19:34:00,
2013-05-04 15:35:00,53.9,53.3,29.88,ENE,64,2.0,3.0,98,0.00,,---,0.00,VWS V14.01,2013-05-04 19:35:00,
2013-05-04 15:39:00,53.4,52.6,29.89,ESE,109,2.0,6.0,97,0.00,,---,0.00,VWS V14.01,2013-05-04 19:39:00,
2013-05-04 15:40:00,54.0,53.2,29.89,NE,53,0.0,3.0,97,0.00,,---,0.00,VWS V14.01,2013-05-04 19:40:00,
2013-05-04 15:44:00,53.3,52.5,29.88,SE,131,0.0,2.0,97,0.00,,---,0.00,VWS V14.01,2013-05-04 19:44:00,
2013-05-04 15:45:00,54.3,53.5,29.89,NE,52,0.0,1.0,97,0.00,,---,0.00,VWS V14.01,2013-05-04 19:45:00,
2013-05-04 15:49:00,53.4,52.6,29.88,SE,131,0.0,0.0,97,0.00,,---,0.00,VWS V14.01,2013-05-04 19:49:00,
2013-05-04 15:50:00,54.3,53.5,29.89,NW,322,0.0,3.0,97,0.00,,---,0.00,VWS V14.01,2013-05-04 19:50:00,
2013-05-04 15:54:00,53.5,52.7,29.87,SE,131,0.0,1.0,97,0.00,,---,0.00,VWS V14.01,2013-05-04 19:54:00,
2013-05-04 15:55:00,54.2,53.1,29.90,ENE,63,1.0,3.0,96,0.00,,---,0.00,VWS V14.01,2013-05-04 19:55:00,
2013-05-04 15:59:00,53.4,52.6,29.87,SE,131,0.0,1.0,97,0.00,,---,0.00,VWS V14.01,2013-05-04 19:59:00,
2013-05-04 16:00:00,54.1,53.0,29.90,East,97,5.0,5.0,96,0.00,,---,0.00,VWS V14.01,2013-05-04 20:00:00,
2013-05-04 16:04:00,53.2,52.4,29.88,ESE,113,0.0,1.0,97,0.00,,---,0.00,VWS V14.01,2013-05-04 20:04:00,
2013-05-04 16:05:00,53.9,52.8,29.90,ENE,75,3.0,5.0,96,0.00,,---,0.00,VWS V14.01,2013-05-04 20:05:00,
2013-05-04 16:09:00,53.2,52.4,29.88,NE,39,1.0,2.0,97,0.00,,---,0.00,VWS V14.01,2013-05-04 20:09:00,
2013-05-04 16:10:00,53.7,52.6,29.90,ENE,63,1.0,5.0,96,0.00,,---,0.00,VWS V14.01,2013-05-04 20:10:00,
2013-05-04 16:14:00,53.1,52.3,29.88,NE,38,0.0,1.0,97,0.00,,---,0.00,VWS V14.01,2013-05-04 20:14:00,
2013-05-04 16:15:00,53.6,52.8,29.91,East,93,3.0,5.0,97,0.00,,---,0.00,VWS V14.01,2013-05-04 20:15:00,
2013-05-04 16:19:00,53.1,52.3,29.87,North,3,1.0,1.0,97,0.00,,---,0.00,VWS V14.01,2013-05-04 20:19:00,
2013-05-04 16:20:00,53.6,52.8,29.91,NE,53,1.0,3.0,97,0.00,,---,0.00,VWS V14.01,2013-05-04 20:20:00,
2013-05-04 16:24:00,53.2,52.7,29.88,North,3,0.0,1.0,98,0.00,,---,0.00,VWS V14.01,2013-05-04 20:24:00,
2013-05-04 16:25:00,53.5,52.7,29.90,ENE,65,2.0,4.0,97,0.00,,---,0.00,VWS V14.01,2013-05-04 20:25:00,
2013-05-04 16:29:00,53.2,52.7,29.88,North,4,0.0,1.0,98,0.00,,---,0.00,VWS V14.01,2013-05-04 20:29:00,
2013-05-04 16:30:00,53.6,52.8,29.90,East,101,3.0,4.0,97,0.00,,---,0.00,VWS V14.01,2013-05-04 20:30:00,
2013-05-04 16:34:00,53.2,52.7,29.88,North,5,0.0,0.0,98,0.00,,---,0.00,VWS V14.01,2013-05-04 20:34:00,
2013-05-04 16:35:00,53.4,52.6,29.89,East,89,0.0,3.0,97,0.00,,---,0.00,VWS V14.01,2013-05-04 20:35:00,
2013-05-04 16:39:00,53.4,52.8,29.87,North,3,0.0,0.0,98,0.00,,---,0.00,VWS V14.01,2013-05-04 20:39:00,
2013-05-04 16:40:00,53.4,52.6,29.89,SE,131,2.0,6.0,97,0.00,,---,0.00,VWS V14.01,2013-05-04 20:40:00,
2013-05-04 16:44:00,53.6,53.0,29.88,North,4,0.0,0.0,98,0.00,,---,0.00,VWS V14.01,2013-05-04 20:44:00,
2013-05-04 16:45:00,53.3,52.5,29.88,SE,131,0.0,2.0,97,0.00,,---,0.00,VWS V14.01,2013-05-04 20:45:00,
2013-05-04 16:49:00,53.4,52.6,29.88,North,4,0.0,0.0,97,0.00,,---,0.00,VWS V14.01,2013-05-04 20:49:00,
2013-05-04 16:50:00,53.4,52.6,29.88,SE,131,0.0,0.0,97,0.00,,---,0.00,VWS V14.01,2013-05-04 20:50:00,
2013-05-04 16:54:00,53.4,52.6,29.88,North,5,0.0,0.0,97,0.00,,---,0.00,VWS V14.01,2013-05-04 20:54:00,
2013-05-04 16:55:00,53.5,52.7,29.87,SE,131,0.0,1.0,97,0.00,,---,0.00,VWS V14.01,2013-05-04 20:55:00,
2013-05-04 16:59:00,53.4,52.6,29.87,North,5,0.0,0.0,97,0.00,,---,0.00,VWS V14.01,2013-05-04 20:59:00,
2013-05-04 17:00:00,53.4,52.6,29.87,SE,131,0.0,1.0,97,0.00,,---,0.00,VWS V14.01,2013-05-04 21:00:00,
2013-05-04 17:04:00,53.2,52.4,29.87,North,3,0.0,1.0,97,0.00,,---,0.00,VWS V14.01,2013-05-04 21:04:00,
2013-05-04 17:05:00,53.2,52.4,29.88,ESE,113,0.0,1.0,97,0.00,,---,0.00,VWS V14.01,2013-05-04 21:05:00,
2013-05-04 17:09:00,53.1,52.3,29.86,North,4,0.0,1.0,97,0.00,,---,0.00,VWS V14.01,2013-05-04 21:09:00,
2013-05-04 17:10:00,53.2,52.4,29.88,NE,39,1.0,2.0,97,0.00,,---,0.00,VWS V14.01,2013-05-04 21:10:00,
2013-05-04 17:14:00,52.9,52.3,29.86,North,4,0.0,0.0,98,0.00,,---,0.00,VWS V14.01,2013-05-04 21:14:00,
2013-05-04 17:15:00,53.1,52.3,29.88,NE,38,0.0,1.0,97,0.00,,---,0.00,VWS V14.01,2013-05-04 21:15:00,
2013-05-04 17:19:00,52.9,52.3,29.86,ENE,62,2.0,2.0,98,0.00,,---,0.00,VWS V14.01,2013-05-04 21:19:00,
2013-05-04 17:20:00,53.1,52.3,29.87,North,4,1.0,1.0,97,0.00,,---,0.00,VWS V14.01,2013-05-04 21:20:00,
2013-05-04 17:24:00,52.8,52.2,29.87,North,354,0.0,1.0,98,0.00,,---,0.00,VWS V14.01,2013-05-04 21:24:00,
2013-05-04 17:25:00,53.2,52.7,29.88,North,3,0.0,1.0,98,0.00,,---,0.00,VWS V14.01,2013-05-04 21:25:00,
2013-05-04 17:29:00,52.9,52.3,29.88,NNE,22,1.0,3.0,98,0.00,,---,0.00,VWS V14.01,2013-05-04 21:29:00,
2013-05-04 17:30:00,53.2,52.7,29.88,North,5,0.0,1.0,98,0.00,,---,0.00,VWS V14.01,2013-05-04 21:30:00,
2013-05-04 17:34:00,53.0,52.5,29.88,NNE,22,0.0,1.0,98,0.00,,---,0.00,VWS V14.01,2013-05-04 21:34:00,
2013-05-04 17:35:00,53.3,52.8,29.88,North,4,0.0,0.0,98,0.00,,---,0.00,VWS V14.01,2013-05-04 21:35:00,
2013-05-04 17:39:00,53.0,52.5,29.88,NNE,22,0.0,1.0,98,0.00,,---,0.00,VWS V14.01,2013-05-04 21:39:00,
2013-05-04 17:40:00,53.5,53.0,29.87,North,4,0.0,0.0,98,0.00,,---,0.00,VWS V14.01,2013-05-04 21:40:00,
2013-05-04 17:44:00,53.1,52.5,29.88,NNE,22,0.0,0.0,98,0.00,,---,0.00,VWS V14.01,2013-05-04 21:44:00,
2013-05-04 17:45:00,53.5,53.0,29.88,North,4,0.0,0.0,98,0.00,,---,0.00,VWS V14.01,2013-05-04 21:45:00,
2013-05-04 17:49:00,52.9,52.1,29.89,NNE,22,0.0,1.0,97,0.00,,---,0.00,VWS V14.01,2013-05-04 21:49:00,
2013-05-04 17:50:00,53.4,52.6,29.88,North,4,0.0,0.0,97,0.00,,---,0.00,VWS V14.01,2013-05-04 21:50:00,
2013-05-04 17:54:00,52.9,52.3,29.89,NNE,22,0.0,1.0,98,0.00,,---,0.00,VWS V14.01,2013-05-04 21:54:00,
2013-05-04 17:55:00,53.4,52.6,29.88,North,4,0.0,0.0,97,0.00,,---,0.00,VWS V14.01,2013-05-04 21:55:00,
2013-05-04 17:59:00,53.0,52.5,29.88,NNE,22,0.0,1.0,98,0.00,,---,0.00,VWS V14.01,2013-05-04 21:59:00,
2013-05-04 18:00:00,53.3,52.5,29.87,North,5,0.0,0.0,97,0.00,,---,0.00,VWS V14.01,2013-05-04 22:00:00,
2013-05-04 18:04:00,52.9,52.3,29.86,West,270,2.0,3.0,98,0.00,,---,0.00,VWS V14.01,2013-05-04 22:04:00,
2013-05-04 18:05:00,53.2,52.4,29.87,North,4,0.0,1.0,97,0.00,,---,0.00,VWS V14.01,2013-05-04 22:05:00,
2013-05-04 18:09:00,52.8,52.2,29.86,West,262,0.0,3.0,98,0.00,,---,0.00,VWS V14.01,2013-05-04 22:09:00,
2013-05-04 18:10:00,53.0,52.2,29.86,North,3,0.0,1.0,97,0.00,,---,0.00,VWS V14.01,2013-05-04 22:10:00,
2013-05-04 18:14:00,52.6,52.0,29.87,SSW,203,2.0,2.0,98,0.00,,---,0.00,VWS V14.01,2013-05-04 22:14:00,
2013-05-04 18:15:00,53.0,52.5,29.86,North,3,0.0,0.0,98,0.00,,---,0.00,VWS V14.01,2013-05-04 22:15:00,
2013-05-04 18:19:00,52.6,52.0,29.87,SSW,197,0.0,1.0,98,0.00,,---,0.00,VWS V14.01,2013-05-04 22:19:00,
2013-05-04 18:20:00,52.9,52.3,29.86,ENE,70,1.0,2.0,98,0.00,,---,0.00,VWS V14.01,2013-05-04 22:20:00,
2013-05-04 18:24:00,52.6,52.0,29.87,ENE,61,1.0,2.0,98,0.00,,---,0.00,VWS V14.01,2013-05-04 22:24:00,
2013-05-04 18:25:00,52.8,52.2,29.87,North,354,0.0,1.0,98,0.00,,---,0.00,VWS V14.01,2013-05-04 22:25:00,
2013-05-04 18:29:00,52.8,52.2,29.88,ENE,60,0.0,1.0,98,0.00,,---,0.00,VWS V14.01,2013-05-04 22:29:00,
2013-05-04 18:30:00,52.9,52.3,29.88,NNE,22,0.0,3.0,98,0.00,,---,0.00,VWS V14.01,2013-05-04 22:30:00,
2013-05-04 18:34:00,53.0,52.5,29.88,NNE,20,0.0,0.0,98,0.00,,---,0.00,VWS V14.01,2013-05-04 22:34:00,
2013-05-04 18:35:00,53.0,52.5,29.88,NNE,22,0.0,1.0,98,0.00,,---,0.00,VWS V14.01,2013-05-04 22:35:00,
2013-05-04 18:39:00,53.0,52.5,29.88,North,351,1.0,2.0,98,0.00,,---,0.00,VWS V14.01,2013-05-04 22:39:00,
2013-05-04 18:40:00,53.0,52.5,29.88,NNE,22,0.0,1.0,98,0.00,,---,0.00,VWS V14.01,2013-05-04 22:40:00,
2013-05-04 18:44:00,53.0,52.5,29.87,NNW,338,1.0,1.0,98,0.00,,---,0.00,VWS V14.01,2013-05-04 22:44:00,
2013-05-04 18:45:00,53.1,52.5,29.88,NNE,22,0.0,0.0,98,0.00,,---,0.00,VWS V14.01,2013-05-04 22:45:00,
2013-05-04 18:49:00,53.1,52.5,29.87,NNW,338,0.0,0.0,98,0.00,,---,0.00,VWS V14.01,2013-05-04 22:49:00,
2013-05-04 18:50:00,52.9,52.1,29.89,NNE,22,1.0,1.0,97,0.00,,---,0.00,VWS V14.01,2013-05-04 22:50:00,
2013-05-04 18:54:00,53.1,52.5,29.87,NNW,338,0.0,0.0,98,0.00,,---,0.00,VWS V14.01,2013-05-04 22:54:00,
2013-05-04 18:55:00,52.9,52.3,29.89,NNE,22,0.0,1.0,98,0.00,,---,0.00,VWS V14.01,2013-05-04 22:55:00,
2013-05-04 18:59:00,53.1,52.5,29.87,NNW,339,0.0,0.0,98,0.00,,---,0.00,VWS V14.01,2013-05-04 22:59:00,
2013-05-04 19:00:00,53.0,52.5,29.88,NNE,22,1.0,1.0,98,0.00,,---,0.00,VWS V14.01,2013-05-04 23:00:00,
2013-05-04 19:04:00,53.0,52.5,29.87,NNW,339,0.0,0.0,98,0.00,,---,0.00,VWS V14.01,2013-05-04 23:04:00,
2013-05-04 19:05:00,52.9,52.3,29.86,West,260,2.0,3.0,98,0.00,,---,0.00,VWS V14.01,2013-05-04 23:05:00,
2013-05-04 19:09:00,53.0,52.5,29.87,NNW,338,0.0,1.0,98,0.00,,---,0.00,VWS V14.01,2013-05-04 23:09:00,
2013-05-04 19:10:00,52.8,52.2,29.86,West,261,0.0,3.0,98,0.00,,---,0.00,VWS V14.01,2013-05-04 23:10:00,
2013-05-04 19:14:00,53.0,52.5,29.86,NNW,338,0.0,0.0,98,0.00,,---,0.00,VWS V14.01,2013-05-04 23:14:00,
2013-05-04 19:15:00,52.6,52.0,29.87,SSW,197,0.0,2.0,98,0.00,,---,0.00,VWS V14.01,2013-05-04 23:15:00,
2013-05-04 19:19:00,52.8,52.2,29.86,NNW,337,0.0,1.0,98,0.00,,---,0.00,VWS V14.01,2013-05-04 23:19:00,
2013-05-04 19:20:00,52.6,52.0,29.87,ENE,66,1.0,1.0,98,0.00,,---,0.00,VWS V14.01,2013-05-04 23:20:00,
2013-05-04 19:24:00,52.9,52.3,29.86,NNW,339,0.0,0.0,98,0.00,,---,0.00,VWS V14.01,2013-05-04 23:24:00,
2013-05-04 19:25:00,52.6,52.0,29.87,ENE,60,0.0,2.0,98,0.00,,---,0.00,VWS V14.01,2013-05-04 23:25:00,
2013-05-04 19:29:00,52.8,52.2,29.86,NNW,339,0.0,1.0,98,0.00,,---,0.00,VWS V14.01,2013-05-04 23:29:00,
2013-05-04 19:30:00,52.8,52.2,29.88,ENE,60,0.0,1.0,98,0.00,,---,0.00,VWS V14.01,2013-05-04 23:30:00,
2013-05-04 19:34:00,52.9,52.3,29.86,NNW,339,0.0,0.0,98,0.00,,---,0.00,VWS V14.01,2013-05-04 23:34:00,
2013-05-04 19:35:00,53.0,52.5,29.88,NNE,20,0.0,0.0,98,0.00,,---,0.00,VWS V14.01,2013-05-04 23:35:00,
2013-05-04 19:39:00,52.9,52.3,29.86,NNW,339,0.0,0.0,98,0.00,,---,0.00,VWS V14.01,2013-05-04 23:39:00,
2013-05-04 19:40:00,53.0,52.5,29.88,North,352,1.0,2.0,98,0.00,,---,0.00,VWS V14.01,2013-05-04 23:40:00,
2013-05-04 19:44:00,52.9,52.6,29.86,North,4,0.0,1.0,99,0.00,,---,0.00,VWS V14.01,2013-05-04 23:44:00,
2013-05-04 19:45:00,53.0,52.5,29.87,NNW,338,0.0,1.0,98,0.00,,---,0.00,VWS V14.01,2013-05-04 23:45:00,
2013-05-04 19:49:00,53.0,52.7,29.86,NNE,27,0.0,1.0,99,0.00,,---,0.00,VWS V14.01,2013-05-04 23:49:00,
2013-05-04 19:50:00,53.1,52.5,29.87,NNW,339,0.0,0.0,98,0.00,,---,0.00,VWS V14.01,2013-05-04 23:50:00,
2013-05-04 19:54:00,53.0,52.7,29.87,NNE,27,0.0,1.0,99,0.00,,---,0.00,VWS V14.01,2013-05-04 23:54:00,
2013-05-04 19:55:00,53.1,52.5,29.87,NNW,339,0.0,0.0,98,0.00,,---,0.00,VWS V14.01,2013-05-04 23:55:00,
2013-05-04 19:59:00,53.0,52.7,29.86,NNE,27,0.0,1.0,99,0.00,,---,0.00,VWS V14.01,2013-05-04 23:59:00,
2013-05-04 20:00:00,53.1,52.5,29.87,NNW,339,0.0,0.0,98,0.00,,---,0.00,VWS V14.01,2013-05-05 00:00:00,
2013-05-04 20:04:00,53.0,52.7,29.86,NE,41,0.0,1.0,99,0.00,,---,0.00,VWS V14.01,2013-05-05 00:04:00,
2013-05-04 20:05:00,53.0,52.5,29.87,NNW,337,0.0,0.0,98,0.00,,---,0.00,VWS V14.01,2013-05-05 00:05:00,
2013-05-04 20:09:00,53.0,52.7,29.86,NE,41,0.0,0.0,99,0.00,,---,0.00,VWS V14.01,2013-05-05 00:09:00,
2013-05-04 20:10:00,53.0,52.5,29.87,NNW,338,0.0,1.0,98,0.00,,---,0.00,VWS V14.01,2013-05-05 00:10:00,
2013-05-04 20:14:00,53.0,52.7,29.86,NE,41,0.0,0.0,99,0.00,,---,0.00,VWS V14.01,2013-05-05 00:14:00,
2013-05-04 20:15:00,52.9,52.3,29.86,NNW,338,0.0,1.0,98,0.00,,---,0.00,VWS V14.01,2013-05-05 00:15:00,
2013-05-04 20:19:00,53.0,52.7,29.86,NE,41,0.0,1.0,99,0.00,,---,0.00,VWS V14.01,2013-05-05 00:19:00,
2013-05-04 20:20:00,52.8,52.2,29.86,NNW,338,0.0,1.0,98,0.00,,---,0.00,VWS V14.01,2013-05-05 00:20:00,
2013-05-04 20:24:00,53.0,52.7,29.86,NE,41,0.0,0.0,99,0.00,,---,0.00,VWS V14.01,2013-05-05 00:24:00,
2013-05-04 20:25:00,52.8,52.2,29.86,NNW,339,0.0,0.0,98,0.00,,---,0.00,VWS V14.01,2013-05-05 00:25:00,
2013-05-04 20:29:00,53.1,52.8,29.86,NE,41,0.0,0.0,99,0.00,,---,0.00,VWS V14.01,2013-05-05 00:29:00,
2013-05-04 20:30:00,52.8,52.2,29.86,NNW,339,0.0,1.0,98,0.00,,---,0.00,VWS V14.01,2013-05-05 00:30:00,
2013-05-04 20:34:00,53.0,52.7,29.86,East,86,0.0,2.0,99,0.00,,---,0.00,VWS V14.01,2013-05-05 00:34:00,
2013-05-04 20:35:00,52.9,52.3,29.86,NNW,339,0.0,0.0,98,0.00,,---,0.00,VWS V14.01,2013-05-05 00:35:00,
2013-05-04 20:39:00,53.0,52.7,29.86,East,86,0.0,0.0,99,0.00,,---,0.00,VWS V14.01,2013-05-05 00:39:00,
2013-05-04 20:40:00,52.9,52.3,29.86,NNW,339,0.0,0.0,98,0.00,,---,0.00,VWS V14.01,2013-05-05 00:40:00,
2013-05-04 20:44:00,53.0,52.7,29.86,East,85,0.0,0.0,99,0.00,,---,0.00,VWS V14.01,2013-05-05 00:44:00,
2013-05-04 20:45:00,52.9,52.6,29.86,North,4,0.0,1.0,99,0.00,,---,0.00,VWS V14.01,2013-05-05 00:45:00,
2013-05-04 20:49:00,53.0,52.7,29.86,East,85,0.0,1.0,99,0.00,,---,0.00,VWS V14.01,2013-05-05 00:49:00,
2013-05-04 20:50:00,53.0,52.7,29.86,NNE,27,0.0,1.0,99,0.00,,---,0.00,VWS V14.01,2013-05-05 00:50:00,
2013-05-04 20:54:00,53.0,52.7,29.86,SSE,149,1.0,2.0,99,0.00,,---,0.00,VWS V14.01,2013-05-05 00:54:00,
2013-05-04 20:55:00,53.0,52.7,29.87,NNE,27,0.0,1.0,99,0.00,,---,0.00,VWS V14.01,2013-05-05 00:55:00,
2013-05-04 20:59:00,53.0,52.7,29.86,SSE,149,0.0,1.0,99,0.00,,---,0.00,VWS V14.01,2013-05-05 00:59:00,
2013-05-04 21:00:00,53.0,52.7,29.86,NNE,25,0.0,1.0,99,0.00,,---,0.00,VWS V14.01,2013-05-05 01:00:00,
2013-05-04 21:04:00,53.0,52.7,29.86,SSE,149,0.0,0.0,99,0.00,,---,0.00,VWS V14.01,2013-05-05 01:04:00,
2013-05-04 21:05:00,53.0,52.7,29.86,NE,41,0.0,1.0,99,0.00,,---,0.00,VWS V14.01,2013-05-05 01:05:00,
2013-05-04 21:09:00,53.0,52.7,29.86,SSE,149,0.0,0.0,99,0.00,,---,0.00,VWS V14.01,2013-05-05 01:09:00,
2013-05-04 21:10:00,53.0,52.7,29.86,NE,41,0.0,0.0,99,0.00,,---,0.00,VWS V14.01,2013-05-05 01:10:00,
2013-05-04 21:14:00,53.0,52.7,29.86,SSE,149,0.0,0.0,99,0.00,,---,0.00,VWS V14.01,2013-05-05 01:14:00,
2013-05-04 21:15:00,53.0,52.7,29.86,NE,41,0.0,0.0,99,0.00,,---,0.00,VWS V14.01,2013-05-05 01:15:00,
2013-05-04 21:19:00,53.0,52.7,29.86,SSE,149,0.0,0.0,99,0.00,,---,0.00,VWS V14.01,2013-05-05 01:19:00,
2013-05-04 21:20:00,53.0,52.7,29.86,NE,41,0.0,1.0,99,0.00,,---,0.00,VWS V14.01,2013-05-05 01:20:00,
2013-05-04 21:24:00,53.0,52.7,29.86,SSE,149,0.0,0.0,99,0.00,,---,0.00,VWS V14.01,2013-05-05 01:24:00,
2013-05-04 21:25:00,53.0,52.7,29.86,NE,41,0.0,0.0,99,0.00,,---,0.00,VWS V14.01,2013-05-05 01:25:00,
2013-05-04 21:29:00,53.1,52.8,29.86,SSE,149,0.0,0.0,99,0.00,,---,0.00,VWS V14.01,2013-05-05 01:29:00,
2013-05-04 21:30:00,53.0,52.7,29.86,NE,41,0.0,0.0,99,0.00,,---,0.00,VWS V14.01,2013-05-05 01:30:00,
2013-05-04 21:34:00,53.0,52.7,29.86,SSE,150,0.0,0.0,99,0.00,,---,0.00,VWS V14.01,2013-05-05 01:34:00,
2013-05-04 21:35:00,53.0,52.7,29.86,East,86,0.0,2.0,99,0.00,,---,0.00,VWS V14.01,2013-05-05 01:35:00,
2013-05-04 21:39:00,53.0,52.7,29.86,SSE,150,0.0,0.0,99,0.00,,---,0.00,VWS V14.01,2013-05-05 01:39:00,
2013-05-04 21:40:00,53.0,52.7,29.86,East,86,0.0,0.0,99,0.00,,---,0.00,VWS V14.01,2013-05-05 01:40:00,
2013-05-04 21:44:00,53.1,52.8,29.87,SSE,148,0.0,0.0,99,0.00,,---,0.00,VWS V14.01,2013-05-05 01:44:00,
2013-05-04 21:45:00,53.0,52.7,29.86,East,85,0.0,0.0,99,0.00,,---,0.00,VWS V14.01,2013-05-05 01:45:00,
2013-05-04 21:49:00,53.1,52.8,29.86,SSE,148,0.0,1.0,99,0.00,,---,0.00,VWS V14.01,2013-05-05 01:49:00,
2013-05-04 21:50:00,53.0,52.7,29.86,East,85,0.0,1.0,99,0.00,,---,0.00,VWS V14.01,2013-05-05 01:50:00,
2013-05-04 21:54:00,53.0,52.7,29.86,SSE,148,0.0,0.0,99,0.00,,---,0.00,VWS V14.01,2013-05-05 01:54:00,
2013-05-04 21:55:00,53.0,52.7,29.86,SSE,150,0.0,2.0,99,0.00,,---,0.00,VWS V14.01,2013-05-05 01:55:00,
2013-05-04 21:59:00,53.1,52.8,29.86,ESE,122,0.0,1.0,99,0.00,,---,0.00,VWS V14.01,2013-05-05 01:59:00,
2013-05-04 22:00:00,53.0,52.7,29.86,SSE,150,0.0,1.0,99,0.00,,---,0.00,VWS V14.01,2013-05-05 02:00:00,
2013-05-04 22:04:00,53.1,52.8,29.86,ESE,110,1.0,1.0,99,0.00,,---,0.00,VWS V14.01,2013-05-05 02:04:00,
2013-05-04 22:05:00,53.0,52.7,29.86,SSE,149,0.0,0.0,99,0.00,,---,0.00,VWS V14.01,2013-05-05 02:05:00,
2013-05-04 22:09:00,53.1,52.8,29.87,ESE,110,0.0,0.0,99,0.00,,---,0.00,VWS V14.01,2013-05-05 02:09:00,
2013-05-04 22:10:00,53.0,52.7,29.86,SSE,149,0.0,0.0,99,0.00,,---,0.00,VWS V14.01,2013-05-05 02:10:00,
2013-05-04 22:14:00,53.1,52.8,29.87,ESE,110,0.0,1.0,99,0.00,,---,0.00,VWS V14.01,2013-05-05 02:14:00,
2013-05-04 22:15:00,53.0,52.7,29.86,SSE,149,0.0,0.0,99,0.00,,---,0.00,VWS V14.01,2013-05-05 02:15:00,
2013-05-04 22:19:00,53.1,52.8,29.87,ESE,110,0.0,1.0,99,0.00,,---,0.00,VWS V14.01,2013-05-05 02:19:00,
2013-05-04 22:20:00,53.1,52.8,29.86,SSE,149,0.0,0.0,99,0.00,,---,0.00,VWS V14.01,2013-05-05 02:20:00,
2013-05-04 22:24:00,53.2,52.9,29.87,ESE,110,0.0,1.0,99,0.00,,---,0.00,VWS V14.01,2013-05-05 02:24:00,
2013-05-04 22:25:00,53.0,52.7,29.86,SSE,149,0.0,0.0,99,0.00,,---,0.00,VWS V14.01,2013-05-05 02:25:00,
2013-05-04 22:29:00,53.1,52.8,29.87,ESE,110,0.0,1.0,99,0.00,,---,0.00,VWS V14.01,2013-05-05 02:29:00,
2013-05-04 22:30:00,53.1,52.8,29.86,SSE,150,0.0,0.0,99,0.00,,---,0.00,VWS V14.01,2013-05-05 02:30:00,
2013-05-04 22:34:00,53.2,52.9,29.87,ESE,110,0.0,1.0,99,0.00,,---,0.00,VWS V14.01,2013-05-05 02:34:00,
2013-05-04 22:35:00,53.0,52.7,29.86,SSE,149,0.0,0.0,99,0.00,,---,0.00,VWS V14.01,2013-05-05 02:35:00,
2013-05-04 22:39:00,53.2,52.9,29.87,ENE,78,1.0,1.0,99,0.00,,---,0.00,VWS V14.01,2013-05-05 02:39:00,
2013-05-04 22:40:00,53.1,52.8,29.86,SSE,150,0.0,0.0,99,0.00,,---,0.00,VWS V14.01,2013-05-05 02:40:00,
2013-05-04 22:44:00,53.2,52.9,29.87,ENE,78,2.0,2.0,99,0.00,,---,0.00,VWS V14.01,2013-05-05 02:44:00,
2013-05-04 22:45:00,53.0,52.7,29.87,SSE,148,0.0,0.0,99,0.00,,---,0.00,VWS V14.01,2013-05-05 02:45:00,
2013-05-04 22:49:00,53.2,52.9,29.87,ENE,78,0.0,1.0,99,0.00,,---,0.00,VWS V14.01,2013-05-05 02:49:00,
2013-05-04 22:50:00,53.1,52.8,29.86,SSE,148,0.0,1.0,99,0.00,,---,0.00,VWS V14.01,2013-05-05 02:50:00,
2013-05-04 22:54:00,53.2,52.9,29.87,NE,48,0.0,1.0,99,0.00,,---,0.00,VWS V14.01,2013-05-05 02:54:00,
2013-05-04 22:55:00,53.1,52.8,29.86,SE,146,0.0,0.0,99,0.00,,---,0.00,VWS V14.01,2013-05-05 02:55:00,
2013-05-04 22:59:00,53.1,52.8,29.87,East,81,0.0,2.0,99,0.00,,---,0.00,VWS V14.01,2013-05-05 02:59:00,
2013-05-04 23:00:00,53.1,52.8,29.86,ESE,121,0.0,1.0,99,0.00,,---,0.00,VWS V14.01,2013-05-05 03:00:00,
2013-05-04 23:04:00,53.1,52.8,29.86,East,79,0.0,2.0,99,0.00,,---,0.00,VWS V14.01,2013-05-05 03:04:00,
2013-05-04 23:05:00,53.1,52.8,29.86,ESE,110,0.0,1.0,99,0.00,,---,0.00,VWS V14.01,2013-05-05 03:05:00,
2013-05-04 23:09:00,53.0,52.7,29.86,East,79,0.0,1.0,99,0.00,,---,0.00,VWS V14.01,2013-05-05 03:09:00,
2013-05-04 23:10:00,53.1,52.8,29.87,ESE,110,0.0,0.0,99,0.00,,---,0.00,VWS V14.01,2013-05-05 03:10:00,
2013-05-04 23:14:00,53.0,52.7,29.87,NE,41,0.0,0.0,99,0.00,,---,0.00,VWS V14.01,2013-05-05 03:14:00,
2013-05-04 23:15:00,53.1,52.8,29.87,ESE,110,0.0,1.0,99,0.00,,---,0.00,VWS V14.01,2013-05-05 03:15:00,
2013-05-04 23:19:00,52.9,52.6,29.87,NNE,17,1.0,2.0,99,0.00,,---,0.00,VWS V14.01,2013-05-05 03:19:00,
2013-05-04 23:20:00,53.1,52.8,29.87,ESE,110,0.0,1.0,99,0.00,,---,0.00,VWS V14.01,2013-05-05 03:20:00,
2013-05-04 23:24:00,52.8,52.5,29.87,NE,46,0.0,2.0,99,0.00,,---,0.00,VWS V14.01,2013-05-05 03:24:00,
2013-05-04 23:25:00,53.1,52.8,29.87,ESE,110,0.0,1.0,99,0.00,,---,0.00,VWS V14.01,2013-05-05 03:25:00,
2013-05-04 23:29:00,52.7,52.4,29.86,ESE,106,1.0,3.0,99,0.00,,---,0.00,VWS V14.01,2013-05-05 03:29:00,
2013-05-04 23:30:00,53.2,52.9,29.87,ESE,110,0.0,1.0,99,0.00,,---,0.00,VWS V14.01,2013-05-05 03:30:00,
2013-05-04 23:34:00,52.5,52.2,29.86,South,169,0.0,2.0,99,0.00,,---,0.00,VWS V14.01,2013-05-05 03:34:00,
2013-05-04 23:35:00,53.2,52.9,29.87,ESE,110,0.0,1.0,99,0.00,,---,0.00,VWS V14.01,2013-05-05 03:35:00,
2013-05-04 23:39:00,52.4,52.1,29.86,East,84,0.0,2.0,99,0.00,,---,0.00,VWS V14.01,2013-05-05 03:39:00,
2013-05-04 23:40:00,53.1,52.8,29.87,ENE,78,0.0,1.0,99,0.00,,---,0.00,VWS V14.01,2013-05-05 03:40:00,
2013-05-04 23:44:00,52.4,52.1,29.86,East,89,0.0,4.0,99,0.00,,---,0.00,VWS V14.01,2013-05-05 03:44:00,
2013-05-04 23:45:00,53.1,52.8,29.87,ENE,78,1.0,2.0,99,0.00,,---,0.00,VWS V14.01,2013-05-05 03:45:00,
2013-05-04 23:49:00,51.7,51.2,29.86,ENE,75,1.0,4.0,98,0.00,,---,0.00,VWS V14.01,2013-05-05 03:49:00,
2013-05-04 23:50:00,53.2,52.9,29.87,NE,50,0.0,1.0,99,0.00,,---,0.00,VWS V14.01,2013-05-05 03:50:00,
2013-05-04 23:54:00,51.1,50.3,29.86,ENE,77,1.0,3.0,97,0.00,,---,0.00,VWS V14.01,2013-05-05 03:54:00,
2013-05-04 23:55:00,53.2,52.9,29.87,NE,48,0.0,1.0,99,0.00,,---,0.00,VWS V14.01,2013-05-05 03:55:00,
2013-05-04 23:59:00,50.7,49.9,29.86,ENE,68,0.0,2.0,97,0.00,,---,0.00,VWS V14.01,2013-05-05 03:59:00,